• In Austria
  • List of Countries
  • For 7 days
  • Water Temperature
  • Satellite Maps
  • Weather Map
  • News
  • Weather Widgets
  • user-avatar
    Login

    Hourly Weather Shaki

    Today, 23 May, Wednesday

    Time Temperature Precipitation Wind Pressure Humidity
    00:00 +21°C° 0 mm 2 mps 739 mmHg 37%
    01:00 +21°C° 0 mm 2 mps 739 mmHg 36%
    02:00 +20°C° 0 mm 2 mps 739 mmHg 36%
    03:00 +20°C° 0 mm 2 mps 739 mmHg 36%
    04:00 +21°C° 0 mm 2 mps 739 mmHg 36%
    05:00 +21°C° 0 mm 2 mps 739 mmHg 37%
    06:00 +23°C° 0 mm 1 mps 739 mmHg 37%
    07:00 +25°C° 0 mm 2 mps 739 mmHg 32%
    08:00 +27°C° 0 mm 2 mps 739 mmHg 28%
    09:00 +29°C° 0 mm 2 mps 739 mmHg 23%
    10:00 +30°C° 0 mm 2 mps 739 mmHg 22%
    11:00 +30°C° 0 mm 2 mps 739 mmHg 21%
    12:00 +31°C° 0 mm 3 mps 739 mmHg 20%
    13:00 +33°C° 0 mm 3 mps 739 mmHg 20%
    14:00 +33°C° 0 mm 4 mps 738 mmHg 19%
    15:00 +34°C° 0 mm 4 mps 738 mmHg 19%
    16:00 +32°C° 0 mm 4 mps 738 mmHg 21%
    17:00 +30°C° 0 mm 4 mps 737 mmHg 24%
    18:00 +29°C° 0 mm 4 mps 737 mmHg 27%
    19:00 +27°C° 0 mm 4 mps 737 mmHg 27%
    20:00 +25°C° 0 mm 3 mps 738 mmHg 27%
    21:00 +22°C° 0 mm 3 mps 738 mmHg 28%
    22:00 +22°C° 0 mm 3 mps 738 mmHg 26%
    23:00 +21°C° 0 mm 3 mps 738 mmHg 25%

    Tomorrow, 24 May, Thursday

    Time Temperature Precipitation Wind Pressure Humidity
    00:00 +21°C° 0 mm 3 mps 738 mmHg 23%
    01:00 +20°C° 0 mm 3 mps 738 mmHg 21%
    02:00 +20°C° 0 mm 3 mps 737 mmHg 19%
    03:00 +20°C° 0 mm 3 mps 737 mmHg 17%
    04:00 +20°C° 0 mm 3 mps 737 mmHg 20%
    05:00 +21°C° 0 mm 2 mps 737 mmHg 23%
    06:00 +23°C° 0 mm 2 mps 737 mmHg 25%
    07:00 +25°C° 0 mm 2 mps 737 mmHg 23%
    08:00 +27°C° 0 mm 2 mps 737 mmHg 20%
    09:00 +29°C° 0 mm 2 mps 737 mmHg 18%
    10:00 +30°C° 0 mm 2 mps 736 mmHg 17%
    11:00 +31°C° 0 mm 3 mps 736 mmHg 17%
    12:00 +31°C° 0 mm 3 mps 736 mmHg 17%
    13:00 +33°C° 0 mm 3 mps 735 mmHg 18%
    14:00 +33°C° 0 mm 4 mps 735 mmHg 18%
    15:00 +33°C° 0 mm 4 mps 734 mmHg 18%
    16:00 +31°C° 0 mm 3 mps 734 mmHg 21%
    17:00 +30°C° 0 mm 3 mps 733 mmHg 24%
    18:00 +29°C° 0 mm 3 mps 733 mmHg 27%
    19:00 +27°C° 0 mm 3 mps 733 mmHg 26%
    20:00 +26°C° 0 mm 2 mps 733 mmHg 26%
    21:00 +24°C° 0 mm 2 mps 733 mmHg 25%
    22:00 +24°C° 0 mm 2 mps 733 mmHg 26%
    23:00 +23°C° 0 mm 2 mps 733 mmHg 26%

    Day after tomorrow, 25 May, Friday

    Time Temperature Precipitation Wind Pressure Humidity
    00:00 +23°C° 0 mm 2 mps 733 mmHg 27%
    01:00 +21°C° 0 mm 2 mps 733 mmHg 28%
    02:00 +21°C° 0 mm 2 mps 732 mmHg 29%
    03:00 +20°C° 0 mm 2 mps 732 mmHg 31%
    04:00 +21°C° 0 mm 2 mps 732 mmHg 33%
    05:00 +23°C° 0 mm 2 mps 732 mmHg 35%
    06:00 +23°C° 0 mm 2 mps 732 mmHg 37%
    07:00 +25°C° 0 mm 2 mps 732 mmHg 33%
    08:00 +27°C° 0 mm 2 mps 732 mmHg 29%
    09:00 +29°C° 0 mm 2 mps 732 mmHg 25%
    10:00 +30°C° 0 mm 2 mps 732 mmHg 24%
    11:00 +31°C° 0 mm 2 mps 731 mmHg 23%
    12:00 +32°C° 0 mm 2 mps 731 mmHg 22%
    13:00 +32°C° 0 mm 2 mps 731 mmHg 22%
    14:00 +32°C° 0 mm 2 mps 730 mmHg 22%
    15:00 +32°C° 0 mm 2 mps 730 mmHg 22%
    16:00 +32°C° 0 mm 1 mps 730 mmHg 25%
    17:00 +31°C° 0 mm 1 mps 730 mmHg 28%
    18:00 +30°C° 0 mm 1 mps 730 mmHg 31%
    19:00 +28°C° 0 mm 1 mps 730 mmHg 32%
    20:00 +26°C° 0 mm 2 mps 730 mmHg 33%
    21:00 +25°C° 0 mm 2 mps 730 mmHg 34%
    22:00 +24°C° 0 mm 2 mps 730 mmHg 35%
    23:00 +24°C° 0 mm 2 mps 730 mmHg 35%

    26 May, Saturday

    Time Temperature Precipitation Wind Pressure Humidity
    00:00 +23°C° 0 mm 2 mps 730 mmHg 35%
    01:00 +23°C° 0 mm 2 mps 730 mmHg 36%
    02:00 +23°C° 0 mm 2 mps 730 mmHg 37%
    03:00 +23°C° 0 mm 2 mps 730 mmHg 37%
    04:00 +23°C° 0 mm 2 mps 731 mmHg 38%
    05:00 +24°C° 0 mm 2 mps 731 mmHg 39%
    06:00 +25°C° 0 mm 2 mps 731 mmHg 40%
    07:00 +26°C° 0 mm 2 mps 731 mmHg 37%
    08:00 +28°C° 0 mm 3 mps 731 mmHg 33%
    09:00 +30°C° 0 mm 3 mps 731 mmHg 29%
    10:00 +30°C° 0 mm 3 mps 731 mmHg 29%
    11:00 +31°C° 0 mm 2 mps 732 mmHg 29%
    12:00 +31°C° 0 mm 2 mps 732 mmHg 28%
    13:00 +31°C° 0.1 mm 2 mps 732 mmHg 29%
    14:00 +31°C° 0.1 mm 2 mps 732 mmHg 30%
    15:00 +31°C° 0.1 mm 2 mps 732 mmHg 31%
    16:00 +30°C° 0.3 mm 2 mps 733 mmHg 36%
    17:00 +29°C° 0.3 mm 2 mps 733 mmHg 41%
    18:00 +28°C° 0.3 mm 2 mps 734 mmHg 46%
    19:00 +27°C° 0.1 mm 2 mps 735 mmHg 49%
    20:00 +25°C° 0.1 mm 2 mps 735 mmHg 52%
    21:00 +24°C° 0.1 mm 2 mps 736 mmHg 55%
    22:00 +24°C° 0.2 mm 3 mps 736 mmHg 61%
    23:00 +22°C° 0.2 mm 3 mps 737 mmHg 67%

    27 May, Sunday

    Time Temperature Precipitation Wind Pressure Humidity
    00:00 +21°C° 0.2 mm 3 mps 737 mmHg 73%
    01:00 +20°C° 0.4 mm 3 mps 737 mmHg 76%
    02:00 +19°C° 0.4 mm 4 mps 738 mmHg 80%
    03:00 +19°C° 0.4 mm 4 mps 738 mmHg 83%
    04:00 +18°C° 0.5 mm 4 mps 739 mmHg 82%
    05:00 +18°C° 0.5 mm 4 mps 739 mmHg 82%
    06:00 +18°C° 0.5 mm 4 mps 739 mmHg 81%
    07:00 +17°C° 1 mm 4 mps 740 mmHg 80%
    08:00 +16°C° 1 mm 5 mps 741 mmHg 80%
    09:00 +16°C° 1 mm 5 mps 741 mmHg 79%
    10:00 +17°C° 0.6 mm 4 mps 741 mmHg 77%
    11:00 +18°C° 0.6 mm 4 mps 741 mmHg 76%
    12:00 +18°C° 0.6 mm 4 mps 742 mmHg 75%
    13:00 +19°C° 0.1 mm 4 mps 742 mmHg 72%
    14:00 +19°C° 0.1 mm 4 mps 742 mmHg 69%
    15:00 +20°C° 0.1 mm 3 mps 742 mmHg 66%
    16:00 +20°C° 0 mm 3 mps 742 mmHg 66%
    17:00 +20°C° 0 mm 3 mps 742 mmHg 66%
    18:00 +20°C° 0 mm 3 mps 742 mmHg 67%
    19:00 +19°C° 0 mm 3 mps 742 mmHg 70%
    20:00 +18°C° 0 mm 2 mps 742 mmHg 74%
    21:00 +17°C° 0 mm 2 mps 742 mmHg 78%
    22:00 +16°C° 0 mm 2 mps 742 mmHg 79%
    23:00 +16°C° 0 mm 2 mps 742 mmHg 80%

    28 May, Monday

    Time Temperature Precipitation Wind Pressure Humidity
    00:00 +15°C° 0 mm 2 mps 741 mmHg 81%
    01:00 +15°C° 0 mm 2 mps 741 mmHg 81%
    02:00 +15°C° 0 mm 1 mps 741 mmHg 81%
    03:00 +14°C° 0 mm 1 mps 740 mmHg 81%
    04:00 +15°C° 0 mm 1 mps 740 mmHg 77%
    05:00 +16°C° 0 mm 1 mps 740 mmHg 72%
    06:00 +18°C° 0 mm 1 mps 739 mmHg 68%
    07:00 +20°C° 0 mm 1 mps 739 mmHg 64%
    08:00 +21°C° 0 mm 2 mps 738 mmHg 59%
    09:00 +23°C° 0 mm 2 mps 738 mmHg 55%
    10:00 +25°C° 0 mm 2 mps 738 mmHg 52%
    11:00 +26°C° 0 mm 2 mps 737 mmHg 49%
    12:00 +27°C° 0 mm 2 mps 737 mmHg 46%
    13:00 +28°C° 0 mm 2 mps 736 mmHg 45%
    14:00 +28°C° 0 mm 2 mps 736 mmHg 44%
    15:00 +29°C° 0 mm 2 mps 736 mmHg 43%
    16:00 +28°C° 0 mm 2 mps 736 mmHg 46%
    17:00 +28°C° 0 mm 2 mps 736 mmHg 49%
    18:00 +27°C° 0 mm 2 mps 736 mmHg 51%
    19:00 +26°C° 0 mm 2 mps 737 mmHg 55%
    20:00 +24°C° 0 mm 2 mps 737 mmHg 58%
    21:00 +23°C° 0 mm 2 mps 738 mmHg 61%
    22:00 +21°C° 0 mm 2 mps 738 mmHg 64%
    23:00 +21°C° 0 mm 2 mps 738 mmHg 67%
    Show more